Rawlins, WY

2:18 AM MDT on May 21, 2018 (GMT -0600)
Rawlins Municipal

Weather History for KRWL - October, 2012

Change the Weather History Date:

Friday, October 19, 2012

  Actual Average Record
Temperature  
Mean Temperature 49 °F 42 °F  
Max Temperature 61 °F 55 °F 75 °F (2003)
Min Temperature 36 °F 30 °F 13 °F (1982)
Degree Days  
Heating Degree Days 16 23  
Month to date heating degree days 369 369  
Since 1 July heating degree days 591 755  
Cooling Degree Days 0 0  
Month to date cooling degree days 0 0  
Year to date cooling degree days 419 186  
Moisture  
Dew Point 19 °F    
Average Humidity 34    
Maximum Humidity 48    
Minimum Humidity 19    
Precipitation  
Precipitation 0.00 in 0.02 in 0.24 in (1957)
Month to date precipitation 0.05 0.50  
Year to date precipitation 3.92 8.02  
Sea Level Pressure  
Sea Level Pressure 29.95 in    
Wind  
Wind Speed 15 mph (WSW)    
Max Wind Speed 32 mph    
Max Gust Speed 39 mph    
Visibility 10 miles    
Events      
T = Trace of Precipitation, MM = Missing Value Source: NWS Daily Summary

Daily Weather History Graph

Daily Weather History Graph

Search for Another Location

Airport or City:

Astronomy

Oct. 19, 2012 Rise Set
Actual Time 7:26 AM MDT 6:20 PM MDT
Civil Twilight 6:58 AM MDT 6:48 PM MDT
Nautical Twilight 6:25 AM MDT 7:20 PM MDT
Astronomical Twilight 5:53 AM MDT 7:53 PM MDT
Moon 12:15 PM MDT (10/19) 9:59 PM MDT (10/19)
Length of Visible Light 11h 50m
Length of Day
10h 54m
Waxing Crescent, 24% of the Moon is Illuminated
Oct 19
Waxing Crescent
Oct 21
First Quarter
Oct 29
Full
Nov 6
Last Quarter
Nov 13
New

Hourly Weather History & Observations

Time (MDT) Temp. Windchill Dew Point Humidity Pressure Visibility Wind Dir Wind Speed Gust Speed Precip Events Conditions
12:53 AM 42.1 °F 35.2 °F 19.9 °F 41% 30.09 in 10.0 mi West 12.7 mph - N/A   Clear
1:53 AM 42.1 °F 39.2 °F 19.0 °F 40% 30.06 in 10.0 mi Variable 4.6 mph - N/A   Clear
2:53 AM 41.0 °F 37.1 °F 19.0 °F 41% 30.06 in 10.0 mi Variable 5.8 mph - N/A   Clear
3:53 AM 37.9 °F 33.5 °F 19.0 °F 47% 30.04 in 10.0 mi Variable 5.8 mph - N/A   Clear
4:53 AM 39.0 °F 28.3 °F 19.9 °F 46% 30.03 in 10.0 mi WSW 24.2 mph 32.2 mph N/A   Clear
5:53 AM 37.0 °F 29.3 °F 19.9 °F 50% 30.06 in 10.0 mi WSW 11.5 mph - N/A   Clear
6:53 AM 37.0 °F 33.3 °F 19.0 °F 48% 30.06 in 10.0 mi West 4.6 mph - N/A   Clear
7:53 AM 39.0 °F - 19.9 °F 46% 30.05 in 10.0 mi Calm Calm - N/A   Clear
8:53 AM 43.0 °F 40.3 °F 19.9 °F 40% 30.02 in 10.0 mi Variable 4.6 mph 18.4 mph N/A   Clear
9:53 AM 46.9 °F - 19.9 °F 34% 30.02 in 10.0 mi WSW 18.4 mph 24.2 mph N/A   Clear
10:53 AM 53.1 °F - 21.9 °F 30% 29.99 in 10.0 mi WSW 21.9 mph 28.8 mph N/A   Clear
11:53 AM 54.0 °F - 23.0 °F 30% 29.97 in 10.0 mi West 27.6 mph 34.5 mph N/A   Clear
12:53 PM 57.9 °F - 23.0 °F 26% 29.91 in 10.0 mi WSW 21.9 mph 33.4 mph N/A   Clear
1:53 PM 61.0 °F - 21.9 °F 22% 29.87 in 10.0 mi WSW 21.9 mph 32.2 mph N/A   Clear
2:53 PM 61.0 °F - 18.0 °F 19% 29.83 in 10.0 mi WSW 20.7 mph 34.5 mph N/A   Clear
3:53 PM 60.1 °F - 17.1 °F 19% 29.85 in 10.0 mi WSW 25.3 mph 34.5 mph N/A   Clear
4:53 PM 59.0 °F - 17.1 °F 20% 29.85 in 10.0 mi WSW 25.3 mph 36.8 mph N/A   Clear
5:53 PM 57.0 °F - 16.0 °F 20% 29.86 in 10.0 mi WSW 18.4 mph - N/A   Overcast
6:53 PM 55.9 °F - 15.1 °F 20% 29.87 in 10.0 mi WSW 18.4 mph 27.6 mph N/A   Mostly Cloudy
7:53 PM 55.0 °F - 16.0 °F 22% 29.88 in 10.0 mi WSW 18.4 mph 24.2 mph N/A   Clear
8:53 PM 54.0 °F - 16.0 °F 22% 29.85 in 10.0 mi WSW 19.6 mph - N/A   Clear
9:53 PM 51.1 °F - 17.1 °F 26% 29.84 in 10.0 mi SW 9.2 mph - N/A   Clear
10:53 PM 48.9 °F - 19.0 °F 31% 29.83 in 10.0 mi WSW 12.7 mph - N/A   Overcast
11:53 PM 48.9 °F - 19.9 °F 32% 29.81 in 10.0 mi SW 13.8 mph - N/A   Overcast